Location: Carri�res
(48.9069°N, 2.1792°E)
Time: 19:30:59
(UTC+00:00)

Feng Yun 1-1 Rocket - Pass Details

Date: 17 January 2021
Orbit: 830 x 933 km, 99.2° (Epoch: 02 March)

Event Time Altitude Azimuth Distance (km) Brightness Sun altitude
Rises 18:00:06 0° 167° (SSE) 3,363 7.3 -15.1°
Reaches altitude 10° 18:02:26 10° 169° (SSE) 2,438 6.6 -15.5°
Maximum altitude 18:07:50 77° 255° (WSW) 870 4.4 -16.4°
Drops below altitude 10° 18:13:23 10° 342° (NNW) 2,500 6.7 -17.3°
Sets 18:15:48 0° 344° (NNW) 3,455 7.4 -17.6°
